Regional Weather Roundup
Issued by NWS

Home | Current Version | Previous Version | Graphics & Text | Print | Product List | Glossary On
Versions: 1 2 3 4 5 6 7 8 9 10 11 12 13 14 15 16 17 18 19 20 21 22 23 24 25 26 27 28 29 30 31 32 33 34 35 36 37 38 39 40 41 42 43 44 45 46 47 48 49 50
000
ASUS43 KMKX 081310
RWRWI

WISCONSIN REGIONAL WEATHER ROUNDUP
NATIONAL WEATHER SERVICE MILWAUKEE/SULLIVAN WI
700 AM CST MON FEB 08 2016

NOTE: "FAIR" INDICATES FEW OR NO CLOUDS BELOW 12,000 FEET WITH NO
SIGNIFICANT WEATHER AND/OR OBSTRUCTIONS TO VISIBILITY.

WIZ001-002-006>008-014>016-023>028-081400-
NORTHWEST WISCONSIN

CITY           SKY/WX    TMP DP  RH WIND       PRES   REMARKS
SUPERIOR ARPT  CLOUDY    12   5  73 NW13G18   29.85R WCI  -3
ASHLAND        FLURRIES  19  14  81 NW15G21   29.76R WCI   5
HAYWARD        LGT SNOW  13   7  77 VRB6      29.75R WCI   4
SIREN          CLOUDY    12   6  75 NW12      29.83R WCI  -2
CUMBERLAND     FLURRIES  12   7  79 NW16      29.77R WCI  -4
RICE LAKE      LGT SNOW  13   8  80 NW8G17    29.79R WCI   2
CHETEK         LGT SNOW  13   9  83 NW8       29.76R WCI   2
LADYSMITH      CLOUDY    16  12  83 NW15      29.72R WCI   1
EAU CLAIRE     FLURRIES  15   7  70 NW13G21   29.76R WCI   1
MENOMONIE      FLURRIES  15   8  74 NW17G23   29.78R WCI  -1
NEW RICHMOND   FLURRIES  12   6  76 NW21      29.82R WCI  -7
OSCEOLA        CLOUDY    13   5  73 NW13      29.87R WCI  -2
$$

WIZ003>005-009-010-017-018-081400-
NORTH CENTRAL WISCONSIN

CITY           SKY/WX    TMP DP  RH WIND       PRES   REMARKS
MANITOWISH WTR PTCLDY    19  16  89 N6        29.64R WCI  10
ARBOR VITAE    FLURRIES  22  18  84 N14       29.62R WCI   9
WOODRUFF       FLURRIES  22  18  84 N14       29.62R WCI   9
RHINELANDER    FLURRIES  23  18  81 N8        29.60R WCI  14
EAGLE RIVER    LGT SNOW  21  17  87 N12       29.60R WCI   9
LAND O LAKES   CLOUDY    20  17  86 N12G17    29.62R FOG     WCI   8
PHILLIPS       CLOUDY    21  18  86 N8G18     29.64R WCI  12
TOMAHAWK       CLOUDY    23  19  85 N9G16     29.62R WCI  13
MEDFORD        CLOUDY    19  16  89 NW13      29.62R WCI   5
MERRILL        CLOUDY    25  22  87 N7        29.61R WCI  17
$$

WIZ029-030-035-036-043>047-081400-
CENTRAL WISCONSIN

CITY           SKY/WX    TMP DP  RH WIND       PRES   REMARKS
WAUSAU         CLOUDY    24  18  77 W8        29.60R WCI  15
MOSINEE        CLOUDY    21  19  93 NW13G20   29.62R WCI   9
MARSHFIELD     CLOUDY    18  12  77 NW15      29.63R WCI   4
STEVENS POINT  CLOUDY    19  15  82 W7        29.64R WCI  10
WAUPACA        CLOUDY    28  20  73 W9        29.62R WCI  19
WAUTOMA        CLOUDY    23  18  81 NW12      29.65R WCI  12
WISC RAPIDS    CLOUDY    20  12  71 NW14      29.66R WCI   7
CAMP DOUGLAS   CLOUDY    18  18 100 NW14      29.68R WCI   4
$$

WIZ011>013-019>022-031-037>040-048>050-081400-
NORTHEAST WISCONSIN

CITY           SKY/WX    TMP DP  RH WIND       PRES   REMARKS
ANTIGO         CLOUDY    24  21  90 NW6       29.58R WCI  17
SHAWANO        CLOUDY    32  25  76 W6        29.59R WCI  26
OCONTO         CLOUDY    32  32  99 W6        29.57S WCI  27
STURGEON BAY   CLOUDY    32  27  80 W3        29.59R
GREEN BAY      CLOUDY    31  26  82 W12       29.58R WCI  22
MANITOWOC      LGT RAIN  32  30  92 NW7       29.59R WCI  26
APPLETON       CLOUDY    28  21  74 W12       29.57R WCI  18
CLINTONVILLE   CLOUDY    30  23  74 NW12      29.60R WCI  21
OSHKOSH        CLOUDY    27  20  75 W14       29.60R WCI  16
$$

WIZ032>034-041-042-053>061-081400-
SOUTHWEST WISCONSIN

CITY           SKY/WX    TMP DP  RH WIND       PRES   REMARKS
LA CROSSE      CLOUDY    18  11  74 NW14      29.75R WCI   4
SPARTA         FLURRIES  18  13  82 NW10      29.73R WCI   6
VIROQUA        CLOUDY    16  13  88 NW12      29.68S WCI   3
BOSCOBEL       FLURRIES  20  13  74 NW7G16    29.74R WCI  11
PRAIRIE DU CHI MIX PCPN  18  12  78 NW8       29.75R WCI   7
PLATTEVILLE    CLOUDY    19  16  90 W12       29.69R WCI   6
$$

WIZ056-057-062-063-064-067-068-081400-
SOUTH CENTRAL WISCONSIN

CITY           SKY/WX    TMP DP  RH WIND       PRES   REMARKS
REEDSBURG      FLURRIES  19  15  84 NW12      29.68R WCI   7
BARABOO/DELLS  LGT SNOW  20  15  81 NW13      29.66R WCI   7
LONE ROCK      FLURRIES  21  14  74 NW10G22   29.71R WCI  10
MINERAL POINT  FLURRIES  21  18  86 NW10      29.66R WCI  10
MADISON        FLURRIES  24  18  77 NW12G18   29.64R WCI  13
MIDDLETON      CLOUDY    24  20  86 NW13      29.65R WCI  12
WATERTOWN      CLOUDY    27  24  87 NW10      29.61R WCI  17
MONROE         CLOUDY    23  19  86 W10G18    29.64R WCI  12
JANESVILLE     CLOUDY    28  21  74 W13       29.63R WCI  18
$$

WIZ051-052-058>065-066-070>072-081400-
SOUTHEAST WISCONSIN

CITY           SKY/WX    TMP DP  RH WIND       PRES   REMARKS
MILWAUKEE      LGT SNOW  31  28  89 NW8       29.59R VSB 1   WCI  23
WAUKESHA       CLOUDY    28  27  93 W10       29.60R WCI  19
MILWAUKEE/TIMM CLOUDY    30  27  86 NW7       29.60R WCI  23
RACINE         CLOUDY    33  28  81 W9        29.60S WCI  25
BURLINGTON     CLOUDY    28  27  96 W6        29.61R WCI  22
KENOSHA        CLOUDY    30  28  92 W14       29.60R FOG     WCI  19
FOND DU LAC    CLOUDY    28  22  78 NW7       29.61R WCI  21
SHEBOYGAN      CLOUDY    30  24  78 NW13      29.59R WCI  20
WEST BEND      CLOUDY    30  25  80 NW10G16   29.59R WCI  21
JUNEAU         CLOUDY    26  22  83 W9        29.61S WCI  17
$$

LSZ147-162-081400-
LAKE SUPERIOR

STATION/POSITION TIME  TEMP    WIND        PRES    WAVE
                       AIR SEA DIR/SP/G            HT/PER
                 (UTC) (F)     (DEG/KT/KT) (MB)    (FT/S)
DEVILS ISLAND    1300   17     340/ 20/ 22 1009.6R
PORT WING        1200   20     330/ 14/ 23 1008.8R
SAXON HARBOR     1200   23                 1006.4R
$$

LMZ867-665-643>646-081400-
LAKE MICHIGAN

STATION/POSITION TIME  TEMP    WIND        PRES    WAVE
                       AIR SEA DIR/SP/G            HT/PER
                 (UTC) (F)     (DEG/KT/KT) (MB)    (FT/S)
CHAMBERS ISLAND  1200   33     230/  2/  3 1001.7R
NORTHPORT PIER   1200   33      CALM  /  1 1001.7R
KEWAUNEE LAKESHO 1200   32     300/  4/  6 1000.5R
SHEBOYGAN LAKESH 1300   32     290/  8/ 10 1002.7R
PORT WASHINGTON  1200   33     320/  7/ 12 1002.7
MILWAUKEE LAKESH 1210   33     250/  6/  7   N/A
KENOSHA   LAKESH 1300   31     260/ 11/ 17 1002.7R
$$

TC  - TEMPERATURE IN CELSIUS
VSB - VISIBILITY IN STATUTE MILES
WCI - WIND CHILL INDEX
HX  - HEAT INDEX




USA.gov is the U.S. government's official web portal to all federal, state and local government web resources and services.